| time (UTC) | temp F | wind direction | speed MPH | gust MPH | rain 1hr in | rain 24hr in | rain mn in | humidity % | barometer mb |
| 20260504044538 | 53 | 117 | 0.0 | 1.0 | 0.00 | 0.00 | 0.00 | 76 | 1011.3 |
| 20260504043026 | 54 | 248 | 0.0 | 0.0 | 0.00 | 0.00 | 0.00 | 75 | 1011.3 |
| 20260504041524 | 53 | 248 | 0.0 | 0.0 | 0.00 | 0.00 | 0.00 | 76 | 1011.4 |
| 20260504040023 | 53 | 248 | 0.0 | 0.0 | 0.00 | 0.00 | 0.00 | 75 | 1011.5 |
| 20260504034522 | 54 | 248 | 0.0 | 0.0 | 0.00 | 0.00 | 0.00 | 74 | 1011.6 |
| 20260504033019 | 54 | 248 | 0.0 | 0.0 | 0.00 | 0.00 | 0.00 | 72 | 1011.7 |
| 20260504031518 | 55 | 248 | 0.0 | 0.0 | 0.00 | 0.00 | 0.00 | 71 | 1011.6 |
| 20260504030021 | 55 | 248 | 0.0 | 0.0 | 0.00 | 0.00 | 0.00 | 72 | 1011.7 |
| 20260504024518 | 54 | 248 | 0.0 | 0.0 | 0.00 | 0.00 | 0.00 | 71 | 1011.7 |
| 20260504023017 | 55 | 249 | 0.0 | 0.0 | 0.00 | 0.00 | 0.00 | 70 | 1011.8 |
| 20260504021515 | 55 | 249 | 0.0 | 0.0 | 0.00 | 0.00 | 0.00 | 71 | 1011.8 |
| 20260504020017 | 54 | 249 | 0.0 | 0.0 | 0.00 | 0.00 | 0.00 | 72 | 1012.1 |
| 20260504014514 | 54 | 249 | 0.0 | 0.0 | 0.00 | 0.00 | 0.00 | 71 | 1012.0 |
| 20260504013014 | 55 | 249 | 0.0 | 0.0 | 0.00 | 0.00 | 0.00 | 71 | 1012.0 |
| 20260504011512 | 54 | 249 | 0.0 | 0.0 | 0.00 | 0.00 | 0.00 | 72 | 1012.1 |
| 20260504010010 | 54 | 249 | 0.0 | 0.0 | 0.00 | 0.00 | 0.00 | 69 | 1012.2 |
| 20260504004509 | 54 | 249 | 0.0 | 0.0 | 0.00 | 0.00 | 0.00 | 69 | 1012.3 |
| 20260504003008 | 55 | 249 | 0.0 | 0.0 | 0.00 | 0.00 | 0.00 | 69 | 1012.4 |
| 20260504001508 | 54 | 249 | 0.0 | 0.0 | 0.00 | 0.00 | 0.00 | 70 | 1012.6 |
| 20260504000006 | 54 | 249 | 0.0 | 0.0 | 0.00 | 0.00 | 0.00 | 69 | 1012.6 |
| 20260503234505 | 55 | 249 | 0.0 | 0.0 | 0.00 | 0.00 | 0.00 | 68 | 1012.5 |
| 20260503233001 | 55 | 249 | 0.0 | 0.0 | 0.00 | 0.00 | 0.00 | 68 | 1012.8 |
| 20260503231600 | 55 | 249 | 0.0 | 0.0 | 0.00 | 0.00 | 0.00 | 66 | 1012.9 |
| 20260503224556 | 57 | 249 | 0.0 | 0.0 | 0.00 | 0.00 | 0.00 | 62 | 1013.0 |
| 20260503223054 | 57 | 249 | 0.0 | 1.0 | 0.00 | 0.00 | 0.00 | 63 | 1013.0 |
| 20260503221554 | 58 | 228 | 0.0 | 1.0 | 0.00 | 0.00 | 0.00 | 60 | 1012.9 |
| 20260503220049 | 57 | 183 | 0.0 | 0.0 | 0.00 | 0.00 | 0.00 | 63 | 1012.6 |
| 20260503214559 | 57 | 182 | 0.0 | 0.0 | 0.00 | 0.00 | 0.00 | 63 | 1012.5 |
| 20260503213048 | 57 | 182 | 0.0 | 0.0 | 0.00 | 0.00 | 0.00 | 64 | 1012.6 |
| 20260503211552 | 59 | 182 | 0.0 | 0.0 | 0.00 | 0.00 | 0.00 | 59 | 1012.5 |
| 20260503210046 | 59 | 182 | 0.0 | 0.0 | 0.00 | 0.00 | 0.00 | 59 | 1012.5 |
| 20260503204554 | 58 | 184 | 0.0 | 0.0 | 0.00 | 0.00 | 0.00 | 59 | 1012.5 |
| 20260503203049 | 58 | 184 | 0.0 | 0.0 | 0.00 | 0.00 | 0.00 | 59 | 1012.4 |
| 20260503201545 | 59 | 184 | 0.0 | 0.0 | 0.00 | 0.00 | 0.00 | 59 | 1012.3 |
| 20260503200045 | 59 | 184 | 0.0 | 0.0 | 0.00 | 0.00 | 0.00 | 58 | 1012.2 |
| 20260503194547 | 60 | 184 | 0.0 | 0.0 | 0.00 | 0.00 | 0.00 | 57 | 1012.2 |
| 20260503193055 | 61 | 178 | 0.0 | 0.0 | 0.00 | 0.00 | 0.00 | 53 | 1012.2 |
| 20260503191545 | 62 | 178 | 0.0 | 0.0 | 0.00 | 0.00 | 0.00 | 51 | 1011.9 |
| 20260503190058 | 63 | 178 | 0.0 | 0.0 | 0.00 | 0.00 | 0.00 | 49 | 1011.7 |
| 20260503184542 | 63 | 178 | 0.0 | 0.0 | 0.00 | 0.00 | 0.00 | 48 | 1011.7 |
| 20260503183055 | 63 | 178 | 0.0 | 0.0 | 0.00 | 0.00 | 0.00 | 49 | 1011.7 |
| 20260503181541 | 64 | 178 | 0.0 | 1.0 | 0.00 | 0.00 | 0.00 | 48 | 1011.7 |
| 20260503180052 | 64 | 178 | 0.0 | 1.0 | 0.00 | 0.00 | 0.00 | 48 | 1011.5 |
| 20260503174541 | 64 | 202 | 0.0 | 2.0 | 0.00 | 0.00 | 0.00 | 46 | 1011.7 |
| 20260503173101 | 64 | 205 | 0.0 | 3.0 | 0.00 | 0.00 | 0.00 | 47 | 1011.6 |
| 20260503171548 | 65 | 163 | 0.0 | 4.0 | 0.00 | 0.00 | 0.00 | 46 | 1011.6 |
| 20260503081549 | 63 | 181 | 0.0 | 0.0 | 0.00 | 0.00 | 0.00 | 54 | 1013.3 |
| 20260503071547 | 59 | 330 | 0.0 | 1.0 | 0.00 | 0.00 | 0.00 | 60 | 1014.2 |